[[{"header":{"parameterUnit":"m.s-1","parameterCategory":1,"la1":30.2991,"la2":30.254,"lo1":-89.0895,"lo2":-89.0444,"dy":0.0017,"dx":0.0017,"nx":28,"ny":28,"refTime":"2025-04-19T03:00:00:Z","depth":0,"parameterNumber":2,"parameterNumberName":"U-component_of_WINDS"},"data":[0,0,0,0,0,0,0,0,0,0,0,0,0,0,0,0,0,0,0,0,0,0,0,0,0,0,0,0,0,0,0,0,0,0,0,0,0,0,0,0,0,0,0,0,0,0,0,0,0,0,0,0,0,0,0,0,0,0,-2.4544,-2.4544,0,-2.451,-2.4509,-2.4509,-2.4478,-2.4478,-2.4477,-2.4477,-2.4441,-2.4441,-2.444,0,0,0,0,0,0,0,0,0,0,0,0,0,-2.4583,-2.4582,-2.4544,-2.4544,-2.4543,-2.451,-2.4509,-2.4509,-2.4478,-2.4478,-2.4477,-2.4477,-2.4442,-2.4441,-2.444,0,0,0,0,0,0,0,0,0,0,0,0,0,-2.4559,-2.4582,-2.4544,-2.4524,-2.4522,-2.451,-2.4509,-2.4509,-2.4478,-2.4478,-2.4477,-2.4477,-2.4442,-2.4441,-2.444,-2.4446,0,0,-2.4437,-2.4437,0,0,0,0,0,0,0,0,-2.456,-2.4558,-2.4527,-2.4525,-2.4523,-2.4498,-2.451,-2.4488,-2.4478,-2.4495,-2.4477,-2.4476,-2.4461,-2.4458,-2.4453,-2.4444,-2.4442,-2.4437,-2.4437,-2.4436,-2.4436,0,0,0,0,0,0,0,-2.4562,-2.4559,-2.4531,-2.4527,-2.4524,-2.4516,-2.4512,-2.4506,-2.4481,-2.4493,-2.4491,-2.4487,-2.4459,-2.4454,-2.4452,-2.4442,-2.4437,-2.4437,-2.4436,-2.4436,-2.4435,-2.4435,0,0,0,0,0,0,-2.4567,-2.4561,-2.4532,-2.453,-2.4541,-2.4516,-2.4512,-2.4506,-2.4481,-2.4477,-2.4488,-2.4486,-2.4456,-2.4453,-2.445,-2.4454,-2.4436,-2.4436,-2.4435,-2.4434,-2.4435,-2.4436,0,0,0,0,0,0,-2.4568,-2.4565,-2.4533,-2.4544,-2.454,-2.4516,-2.451,-2.4506,-2.45,-2.4477,-2.4472,-2.4487,-2.4455,-2.4452,-2.4447,-2.4453,-2.4435,-2.4434,-2.4434,-2.4435,-2.4435,-2.4463,0,0,0,0,0,0,-2.4569,-2.4565,-2.4567,-2.4545,-2.4539,-2.453,-2.4511,-2.4506,-2.4499,-2.4496,-2.4475,-2.4471,-2.4454,-2.4448,-2.4446,-2.4451,-2.4434,-2.4433,-2.4434,-2.4435,-2.4461,-2.4464,-2.4467,0,0,0,0,0,-2.4571,-2.4576,-2.4567,-2.4564,-2.4541,-2.4531,-2.4528,-2.4509,-2.45,-2.4501,-2.4486,-2.4471,-2.4453,-2.4448,-2.4445,-2.445,-2.4433,-2.4434,-2.4435,-2.446,-2.4464,-2.4467,0,0,0,0,0,0,-2.46,-2.4573,-2.4563,-2.4561,-2.4549,-2.4525,-2.4527,-2.4514,-2.4503,-2.4501,-2.4478,-2.4473,-2.4471,-2.446,-2.4456,-2.4454,-2.4441,-2.4441,-2.4461,-2.4464,-2.4467,-2.4469,-2.4433,0,0,0,0,0,-2.4607,-2.46,-2.4577,-2.4578,-2.4572,-2.4551,-2.4545,-2.4532,-2.4518,-2.4512,-2.4497,-2.4483,-2.4474,-2.4469,-2.4459,-2.446,-2.4454,-2.4462,-2.4465,-2.4468,-2.4468,-2.4467,-2.4469,-2.444,-2.444,-2.4439,0,0,-2.462,-2.4604,-2.4601,-2.4584,-2.4572,-2.4566,-2.4546,-2.4541,-2.4536,-2.4511,-2.4505,-2.4494,-2.4477,-2.4475,-2.4473,-2.4466,-2.4475,-2.4469,-2.4471,-2.447,-2.4468,-2.4471,-2.4474,-2.444,-2.444,-2.444,0,0,-2.464,-2.4628,-2.4627,-2.4616,-2.4598,-2.4584,-2.4584,-2.4563,-2.4554,-2.4548,-2.4529,-2.4523,-2.4508,-2.4497,-2.449,-2.4506,-2.4491,-2.4503,-2.4518,-2.4517,-2.452,-2.4522,-2.4526,-2.4529,-2.4504,-2.4504,-2.4504,0,-2.4658,-2.4648,-2.4628,-2.4623,-2.4616,-2.4594,-2.4592,-2.4582,-2.4563,-2.4558,-2.4551,-2.4531,-2.4519,-2.4513,-2.4517,-2.4512,-2.451,-2.4505,-2.4521,-2.4523,-2.4524,-2.4529,-2.453,-2.4506,-2.4506,-2.4505,-2.4505,0,-2.4671,-2.4664,-2.4666,-2.4647,-2.464,-2.4637,-2.4616,-2.4611,-2.4599,-2.4585,-2.4579,-2.4563,-2.455,-2.4548,-2.4536,-2.454,-2.4536,-2.4525,-2.4511,-2.4529,-2.4532,-2.4534,-2.4508,-2.4507,-2.4507,-2.4506,0,0,-2.4708,-2.4679,-2.4679,-2.467,-2.465,-2.4644,-2.464,-2.4627,-2.4623,-2.461,-2.4606,-2.4594,-2.4583,-2.4575,-2.4561,-2.4561,-2.4573,-2.4549,-2.4549,-2.4553,-2.4576,-2.4584,-2.4586,-2.4564,-2.4564,-2.4565,-2.4577,0,-2.4724,-2.4715,-2.4698,-2.4694,-2.4687,-2.4666,-2.4663,-2.4649,-2.4637,-2.4629,-2.4615,-2.4607,-2.4594,-2.4588,-2.4587,-2.4572,-2.4577,-2.4571,-2.4559,-2.4559,-2.4563,-2.4588,-2.4596,-2.4609,-2.4579,-2.4579,-2.4579,0,-2.4742,-2.473,-2.4726,-2.4705,-2.4702,-2.4699,-2.4685,-2.4678,-2.4663,-2.4653,-2.4644,-2.4629,-2.4623,-2.4611,-2.4603,-2.4599,-2.4593,-2.4585,-2.4585,-2.4582,-2.4569,-2.4585,-2.4613,-2.4614,-2.4581,-2.4581,-2.4581,0,-2.4768,-2.4752,-2.4747,-2.474,-2.4716,-2.4714,-2.4704,-2.4688,-2.4681,-2.4669,-2.4664,-2.4652,-2.4645,-2.4636,-2.4618,-2.4611,-2.4611,-2.4598,-2.4603,-2.4603,-2.4603,-2.4603,-2.4629,-2.4601,-2.4601,-2.4601,-2.4601,0,-2.4787,-2.4786,-2.4758,-2.4755,-2.4753,-2.4732,-2.473,-2.4718,-2.4704,-2.4698,-2.4679,-2.4674,-2.4651,-2.4643,-2.4629,-2.4623,-2.4621,-2.4613,-2.4609,-2.4614,-2.4615,-2.4609,-2.4607,-2.4601,-2.4601,-2.4601,-2.4601,0,-2.4816,-2.4798,-2.4791,-2.4769,-2.4763,-2.4762,-2.4743,-2.4739,-2.4725,-2.4718,-2.4715,-2.4693,-2.4683,-2.4664,-2.4649,-2.4639,-2.4636,-2.463,-2.4642,-2.4639,-2.4644,-2.4644,-2.4667,-2.4668,-2.4641,-2.4641,-2.4641,0,-2.4829,-2.4827,-2.4804,-2.4799,-2.4789,-2.4781,-2.4774,-2.4754,-2.4747,-2.4729,-2.4727,-2.4715,-2.4704,-2.4689,-2.4672,-2.466,-2.4653,-2.4661,-2.4651,-2.4655,-2.4651,-2.4651,-2.4651,-2.4664,-2.4664,-2.4664,-2.4665,0,-2.4854,-2.4845,-2.4835,-2.4822,-2.4814,-2.4802,-2.479,-2.4787,-2.4764,-2.4757,-2.4746,-2.4738,-2.4722,-2.471,-2.4695,-2.4685,-2.4671,-2.4668,-2.4669,-2.4673,-2.4679,-2.4675,-2.4647,-2.4668,-2.4667,-2.4667,-2.4667,-2.4667,-2.4875,-2.4872,-2.4855,-2.4844,-2.4833,-2.4822,-2.4817,-2.4802,-2.4793,-2.4778,-2.4766,-2.4756,-2.474,-2.4719,-2.4709,-2.4701,-2.4694,-2.4695,-2.4695,-2.4695,-2.4697,-2.4682,-2.4698,-2.4698,-2.4698,-2.4698,-2.4698,0,-2.4898,-2.4886,-2.4876,-2.4859,-2.4851,-2.4839,-2.4824,-2.4818,-2.4809,-2.4795,-2.4785,-2.4772,-2.4761,-2.4743,-2.473,-2.4726,-2.472,-2.4724,-2.4723,-2.4721,-2.4704,-2.4704,-2.4729,-2.4729,-2.4729,-2.4729,-2.4729,-2.4729,-2.4909,-2.4902,-2.4891,-2.4879,-2.4867,-2.4856,-2.4849,-2.4839,-2.4828,-2.4814,-2.4804,-2.4792,-2.4777,-2.4762,-2.4751,-2.4746,-2.4742,-2.4748,-2.4741,-2.4725,-2.4722,-2.4719,-2.472,-2.4747,-2.4747,-2.4758,-2.4758,-2.4758]},{"header":{"parameterUnit":"m.s-1","parameterCategory":1,"la1":30.2991,"la2":30.254,"lo1":-89.0895,"lo2":-89.0444,"dy":0.0017,"dx":0.0017,"nx":28,"ny":28,"refTime":"2025-04-19T03:00:00:Z","depth":0,"parameterNumber":3,"parameterNumberName":"V-component_of_WINDS"},"data":[0,0,0,0,0,0,0,0,0,0,0,0,0,0,0,0,0,0,0,0,0,0,0,0,0,0,0,0,0,0,0,0,0,0,0,0,0,0,0,0,0,0,0,0,0,0,0,0,0,0,0,0,0,0,0,0,0,0,5.3309,5.3309,0,5.3269,5.3269,5.3268,5.3256,5.3256,5.3256,5.3257,5.321,5.3209,5.3208,0,0,0,0,0,0,0,0,0,0,0,0,0,5.3374,5.3372,5.3309,5.3309,5.3308,5.3269,5.3269,5.3268,5.3256,5.3256,5.3256,5.3257,5.3211,5.3209,5.3207,0,0,0,0,0,0,0,0,0,0,0,0,0,5.3341,5.3372,5.331,5.3298,5.3296,5.3269,5.3269,5.3268,5.3256,5.3256,5.3256,5.3257,5.3211,5.3209,5.3207,5.3187,0,0,5.3201,5.32,0,0,0,0,0,0,0,0,5.3342,5.3338,5.33,5.3299,5.3297,5.3268,5.3274,5.3241,5.3256,5.3271,5.3257,5.3257,5.3229,5.3225,5.3217,5.3185,5.3183,5.32,5.3199,5.3198,5.3198,0,0,0,0,0,0,0,5.3345,5.334,5.3293,5.3299,5.3298,5.3294,5.3289,5.3268,5.3248,5.327,5.3269,5.3264,5.3228,5.3219,5.3216,5.3183,5.32,5.3199,5.3197,5.3196,5.3136,5.3135,0,0,0,0,0,0,5.335,5.3342,5.3295,5.3292,5.3321,5.3292,5.3287,5.3277,5.3249,5.3245,5.3264,5.3264,5.3223,5.3218,5.3214,5.3191,5.3198,5.3196,5.3195,5.3136,5.3136,5.3135,0,0,0,0,0,0,5.3351,5.3345,5.3296,5.3317,5.331,5.3291,5.3279,5.3276,5.3267,5.3245,5.3241,5.3259,5.3223,5.3217,5.3195,5.3189,5.3195,5.3193,5.3136,5.3136,5.3135,5.3143,0,0,0,0,0,0,5.3353,5.3346,5.3339,5.3317,5.3309,5.3279,5.3279,5.3275,5.3264,5.3263,5.3238,5.3234,5.3222,5.3198,5.3193,5.3186,5.3192,5.3137,5.3136,5.3136,5.3143,5.3143,5.3143,0,0,0,0,0,5.3355,5.3341,5.3338,5.3333,5.33,5.3278,5.3274,5.3262,5.3263,5.3255,5.3242,5.3235,5.3191,5.3196,5.319,5.3182,5.3137,5.3136,5.3136,5.3144,5.3143,5.3143,0,0,0,0,0,0,5.336,5.3337,5.3335,5.3313,5.3298,5.3276,5.3266,5.3261,5.3244,5.3244,5.3228,5.3223,5.3202,5.319,5.3196,5.3163,5.3164,5.3162,5.3172,5.3171,5.3171,5.3174,5.319,0,0,0,0,0,5.3359,5.3344,5.3325,5.3308,5.3301,5.3285,5.3275,5.3267,5.325,5.3243,5.3228,5.3211,5.3193,5.3181,5.3164,5.3142,5.3137,5.3134,5.3134,5.3134,5.3132,5.3122,5.3121,5.3133,5.3133,5.3133,0,0,5.3355,5.3341,5.3333,5.3308,5.3296,5.3281,5.3279,5.3262,5.3251,5.324,5.3219,5.3208,5.3188,5.3167,5.3156,5.3156,5.3128,5.3133,5.3133,5.3131,5.3121,5.312,5.3119,5.3132,5.3132,5.3132,0,0,5.3342,5.333,5.3315,5.3304,5.3286,5.3276,5.3273,5.3252,5.3245,5.3225,5.3217,5.3203,5.3172,5.3159,5.3148,5.3134,5.3128,5.3129,5.3127,5.3117,5.3116,5.3115,5.3111,5.311,5.3127,5.3127,5.3127,0,5.3339,5.3317,5.3307,5.3293,5.3283,5.3275,5.326,5.3249,5.3225,5.3218,5.3219,5.3183,5.3168,5.3145,5.3142,5.3134,5.313,5.3131,5.3117,5.3116,5.3115,5.3111,5.311,5.3127,5.3127,5.3127,5.3127,0,5.3316,5.3301,5.3291,5.3272,5.3261,5.3246,5.3234,5.3224,5.3218,5.3208,5.3189,5.3172,5.3152,5.3146,5.3139,5.3122,5.3123,5.3121,5.312,5.3115,5.3111,5.3109,5.3128,5.3128,5.3128,5.3128,0,0,5.3302,5.328,5.3277,5.3269,5.325,5.3238,5.3224,5.3207,5.3199,5.3184,5.3171,5.3148,5.3147,5.3135,5.3126,5.3118,5.311,5.3117,5.3116,5.3117,5.3093,5.3095,5.3093,5.3106,5.3106,5.3106,5.3095,0,5.3286,5.3262,5.3254,5.3233,5.322,5.3214,5.3202,5.3189,5.318,5.3167,5.3157,5.3141,5.314,5.3133,5.3125,5.3113,5.3105,5.3113,5.3094,5.3094,5.31,5.3091,5.3093,5.3083,5.3093,5.3093,5.3093,0,5.3264,5.3252,5.3231,5.3217,5.3211,5.32,5.3185,5.3173,5.3159,5.3154,5.3142,5.3136,5.3121,5.3123,5.3102,5.3108,5.31,5.3094,5.3093,5.309,5.3093,5.3089,5.3079,5.3078,5.309,5.309,5.309,0,5.3258,5.3236,5.3221,5.3214,5.3197,5.319,5.3182,5.3169,5.316,5.3147,5.3141,5.3126,5.3117,5.3105,5.3095,5.3097,5.3076,5.3076,5.3071,5.3071,5.3066,5.3066,5.3055,5.3061,5.3061,5.3061,5.3061,0,5.3241,5.3229,5.3218,5.3209,5.3195,5.3186,5.3173,5.3164,5.3153,5.3142,5.3136,5.3125,5.3112,5.31,5.3092,5.3077,5.3073,5.3068,5.3066,5.3069,5.307,5.3063,5.3064,5.306,5.306,5.306,5.306,0,5.3231,5.3223,5.3207,5.3193,5.319,5.318,5.3168,5.3159,5.3152,5.3138,5.3134,5.3122,5.3108,5.3097,5.3078,5.3072,5.3057,5.3055,5.3063,5.3062,5.3057,5.3058,5.3042,5.304,5.3046,5.3046,5.3046,0,5.3221,5.3212,5.3198,5.3192,5.3185,5.3174,5.3166,5.3158,5.315,5.3135,5.3128,5.3114,5.3103,5.3081,5.3069,5.3056,5.3053,5.3048,5.305,5.3055,5.3054,5.3055,5.3054,5.3048,5.3048,5.3048,5.3048,0,5.3205,5.3202,5.3192,5.3181,5.3172,5.3163,5.3153,5.3147,5.3138,5.3129,5.3116,5.3107,5.309,5.3077,5.3063,5.3054,5.3049,5.3048,5.3046,5.3048,5.3054,5.3052,5.3062,5.3048,5.3048,5.3048,5.3048,5.3048,5.3194,5.3187,5.3178,5.3167,5.316,5.3151,5.3143,5.3136,5.3126,5.3112,5.3108,5.3095,5.3083,5.3064,5.3056,5.3046,5.3045,5.3042,5.3042,5.3041,5.3042,5.3056,5.3043,5.3043,5.3043,5.3043,5.3043,0,5.3179,5.3173,5.3164,5.3152,5.3144,5.3143,5.3133,5.3126,5.3115,5.3106,5.3096,5.3082,5.307,5.306,5.3047,5.3041,5.3039,5.3038,5.3038,5.3037,5.3042,5.3046,5.304,5.304,5.304,5.304,5.304,5.304,5.317,5.3158,5.3155,5.3139,5.3134,5.3122,5.3117,5.311,5.3103,5.3088,5.3079,5.3073,5.3064,5.3051,5.3041,5.3038,5.3034,5.3034,5.303,5.3036,5.3036,5.3036,5.304,5.3033,5.3033,5.3026,5.3026,5.3026]}]]